TimeEDT,TemperatureF,Dew PointF,Humidity,Sea Level PressureIn,VisibilityMPH,Wind Direction,Wind SpeedMPH,Gust SpeedMPH,PrecipitationIn,Events,Conditions,WindDirDegrees,DateUTC
12:53 AM,62.1,53.1,72,30.13,10.0,ESE,3.5,-,N/A,,Scattered Clouds,110,2013-03-17 04:53:00
1:53 AM,60.1,53.1,78,30.11,10.0,Calm,Calm,-,N/A,,Clear,0,2013-03-17 05:53:00
2:53 AM,57.9,52.0,81,30.10,10.0,East,3.5,-,N/A,,Clear,80,2013-03-17 06:53:00
3:53 AM,57.9,52.0,81,30.08,10.0,Calm,Calm,-,N/A,,Clear,0,2013-03-17 07:53:00
4:53 AM,57.0,52.0,83,30.07,10.0,Calm,Calm,-,N/A,,Clear,0,2013-03-17 08:53:00
5:53 AM,55.0,51.1,86,30.06,10.0,East,4.6,-,N/A,,Clear,80,2013-03-17 09:53:00
6:53 AM,55.9,51.1,84,30.09,10.0,East,3.5,-,N/A,,Clear,90,2013-03-17 10:53:00
7:53 AM,55.9,52.0,87,30.10,10.0,East,3.5,-,N/A,,Clear,80,2013-03-17 11:53:00
8:53 AM,61.0,54.0,78,30.12,10.0,East,8.1,-,N/A,,Clear,90,2013-03-17 12:53:00
9:53 AM,66.9,55.0,66,30.12,10.0,East,9.2,-,N/A,,Clear,100,2013-03-17 13:53:00
10:53 AM,72.0,57.0,59,30.13,10.0,SE,11.5,-,N/A,,Clear,140,2013-03-17 14:53:00
11:53 AM,75.0,57.9,55,30.12,10.0,South,12.7,19.6,N/A,,Mostly Cloudy,190,2013-03-17 15:53:00
12:53 PM,78.1,55.0,45,30.11,10.0,SSE,17.3,24.2,N/A,,Scattered Clouds,160,2013-03-17 16:53:00
1:53 PM,78.1,55.9,46,30.09,10.0,South,13.8,19.6,N/A,,Mostly Cloudy,180,2013-03-17 17:53:00
2:53 PM,78.1,55.9,46,30.06,10.0,South,11.5,18.4,N/A,,Partly Cloudy,180,2013-03-17 18:53:00
3:53 PM,75.0,55.9,51,30.04,10.0,SSW,13.8,-,N/A,,Partly Cloudy,200,2013-03-17 19:53:00
4:53 PM,77.0,57.0,50,30.03,10.0,SSW,11.5,-,N/A,,Partly Cloudy,200,2013-03-17 20:53:00
5:53 PM,73.9,55.9,53,30.01,10.0,South,9.2,-,N/A,,Clear,190,2013-03-17 21:53:00
6:53 PM,73.9,55.9,53,30.02,10.0,South,9.2,-,N/A,,Clear,170,2013-03-17 22:53:00
7:53 PM,71.1,55.9,59,30.03,10.0,South,4.6,-,N/A,,Clear,170,2013-03-17 23:53:00
8:53 PM,70.0,57.0,63,30.04,10.0,South,3.5,-,N/A,,Clear,180,2013-03-18 00:53:00
9:53 PM,68.0,59.0,73,30.05,10.0,Calm,Calm,-,N/A,,Clear,0,2013-03-18 01:53:00
10:53 PM,66.0,57.9,75,30.06,10.0,East,3.5,-,N/A,,Clear,100,2013-03-18 02:53:00
11:53 PM,64.9,59.0,81,30.06,10.0,ESE,4.6,-,N/A,,Clear,110,2013-03-18 03:53:00